Regional Weather Roundup
Issued by NWS

Home | Current Version | Previous Version | Graphics & Text | Print | Product List | Glossary On
Versions: 1 2 3 4 5 6 7 8 9 10 11 12 13 14 15 16 17 18 19 20 21 22 23 24 25 26 27 28 29 30 31 32 33 34 35 36 37 38 39 40 41 42 43 44 45 46 47 48 49 50
000
ASUS43 KMKX 011721
RWRWI

WISCONSIN REGIONAL WEATHER ROUNDUP
NATIONAL WEATHER SERVICE MILWAUKEE/SULLIVAN WI
1200 PM CDT MON SEP 01 2014

NOTE: "FAIR" INDICATES FEW OR NO CLOUDS BELOW 12,000 FEET WITH NO
SIGNIFICANT WEATHER AND/OR OBSTRUCTIONS TO VISIBILITY.

WIZ001-002-006>008-014>016-023>028-011800-
NORTHWEST WISCONSIN

CITY           SKY/WX    TMP DP  RH WIND       PRES   REMARKS
SUPERIOR ARPT  CLOUDY    68  59  71 NW14      29.65R
ASHLAND        CLOUDY    68  61  78 W10       29.65R
HAYWARD        CLOUDY    67  63  87 CALM      29.67R
SIREN          CLOUDY    68  61  78 W9        29.70R
RICE LAKE      PTSUNNY   69  61  75 W9        29.71R
LADYSMITH      CLOUDY    68  64  86 W7        29.70R
EAU CLAIRE     PTSUNNY   72  62  71 W14G22    29.68R
MENOMONIE      MOSUNNY   73  62  69 NW14      29.70R
NEW RICHMOND   CLOUDY    68  64  88 W6        29.72R
OSCEOLA        PTSUNNY   70  66  87 W10       29.74R
$$

WIZ003>005-009-010-017-018-011800-
NORTH CENTRAL WISCONSIN

CITY           SKY/WX    TMP DP  RH WIND       PRES   REMARKS
WOODRUFF       CLOUDY    64  62  92 W7        29.66R
RHINELANDER    HVY RAIN  62  61  96 W13       29.68R FOG
EAGLE RIVER    DRIZZLE   63  63 100 W9        29.64R
LAND O LAKES   CLOUDY    64  63  96 SW5       29.64R
PHILLIPS       CLOUDY    65  63  92 W8        29.67R
TOMAHAWK       CLOUDY    65  64  95 SW5       29.68R
MEDFORD        LGT RAIN  64  63  95 SW8       29.69R
MERRILL        CLOUDY    67  64  89 W8        29.68R
$$

WIZ029-030-035-036-043>047-011800-
CENTRAL WISCONSIN

CITY           SKY/WX    TMP DP  RH WIND       PRES   REMARKS
WAUSAU         CLOUDY    68  63  84 SW8       29.67S
MOSINEE        CLOUDY    66  64  94 SW8       29.69F
MARSHFIELD     CLOUDY    67  64  90 SW12      29.68S
STEVENS POINT  CLOUDY    65  63  93 SW10      29.69S
WAUPACA        CLOUDY    69  67  92 S7        29.69F
WAUTOMA        CLOUDY    70  66  88 SW10      29.70S
WISC RAPIDS    CLOUDY    70  65  84 SW13G22   29.70S
CAMP DOUGLAS   MOSUNNY   70  70 100 SW13      29.70S
$$

WIZ011>013-019>022-031-037>040-048>050-011800-
NORTHEAST WISCONSIN

CITY           SKY/WX    TMP DP  RH WIND       PRES   REMARKS
ANTIGO         CLOUDY    64  62  94 SW9       29.68F
STURGEON BAY   CLOUDY    68  64  88 W10       29.68F
GREEN BAY      CLOUDY    68  66  93 SW6       29.70F
MANITOWOC      CLOUDY    72  68  87 W6        29.71F
APPLETON       PTSUNNY   66  66 100 S8        29.70F
CLINTONVILLE   LGT RAIN  66  64  94 S10       29.69F
OSHKOSH        LGT RAIN  69  66  90 SW5       29.71S FOG
$$

WIZ032>034-041-042-053>061-011800-
SOUTHWEST WISCONSIN

CITY           SKY/WX    TMP DP  RH WIND       PRES   REMARKS
LA CROSSE      PTSUNNY   76  65  68 W8        29.70R
SPARTA         CLOUDY    70  66  88 SW6       29.71R
VIROQUA        CLOUDY    66  66 100 SW6       29.74R
BOSCOBEL       CLOUDY    73  66  78 SW12G18   29.73R
PRAIRIE DU CHI CLOUDY    73  65  77 SW7       29.73S
PLATTEVILLE    CLOUDY    72  66  83 SW18G24   29.77S
$$

WIZ056-057-062-063-064-067-068-011800-
SOUTH CENTRAL WISCONSIN

CITY           SKY/WX    TMP DP  RH WIND       PRES   REMARKS
BARABOO/DELLS  CLOUDY    67  63  86 SW13      29.72S
LONE ROCK      CLOUDY    74  66  76 SW12G18   29.73S
WATERTOWN      CLOUDY    73  66  79 SW12      29.73F
MADISON        CLOUDY    74  63  68 SW9       29.73S
MIDDLETON      CLOUDY    74  63  68 SW12      29.74R
MONROE         CLOUDY    73  63  68 SW20G28   29.76R
JANESVILLE     PTSUNNY   79  63  57 SW12G17   29.74F HX  80
$$

WIZ051-052-058>065-066-070>072-011800-
SOUTHEAST WISCONSIN

CITY           SKY/WX    TMP DP  RH WIND       PRES   REMARKS
MILWAUKEE      CLOUDY    77  68  73 SW22G30   29.75S
WAUKESHA       NOT AVBL
MILWAUKEE/TIMM MOSUNNY   75  64  69 SW14G25   29.75S
RACINE         CLOUDY    77  68  73 SW13      29.76F
BURLINGTON     CLOUDY    74  65  73 W12G24    29.75F
KENOSHA        PTSUNNY   80  68  66 W18G29    29.75S HX  83
FOND DU LAC    LGT RAIN  70  64  81 SW8       29.72F
SHEBOYGAN      CLOUDY    74  70  87 SW9       29.71F
WEST BEND      PTSUNNY   73  64  73 SW15G21   29.72F
JUNEAU         PTSUNNY   70  66  85 S12       29.73F
$$

LSZ147-162-011800-
LAKE SUPERIOR

STATION/POSITION TIME  TEMP    WIND        PRES    WAVE
                       AIR SEA DIR/SP/G            HT/PER
                 (UTC) (F)     (DEG/KT/KT) (MB)    (FT/S)
W MID LAKE BUOY  1650   60 58  240/ 12/ 14 1001.0S   1/ 3
DEVILS ISLAND    1700   63     240/ 17/ 19 1002.5R
PORT WING        1640   65     250/  6/ 10 1004.1R
SAXON HARBOR     1600   66     220/  2/  5 1002.7S
$$

LMZ867-665-643>646-011800-
LAKE MICHIGAN

STATION/POSITION TIME  TEMP    WIND        PRES    WAVE
                       AIR SEA DIR/SP/G            HT/PER
                 (UTC) (F)     (DEG/KT/KT) (MB)    (FT/S)
N MID LAKE BUOY  1650   67 65  220/ 16/ 17 1004.0F   4/ 6
NORTHPORT PIER   1600   69     210/  3/  7 1005.1S
KEWAUNEE LAKESHO 1700   70     260/  9/ 12 1004.7F
SHEBOYGAN LAKESH 1700   70 55  220/  8/  9 1006.0F
ATWATER BUOY     1700   73     230/ 14/ 17 1007.7F
MILWAUKEE LAKESH 1700   76     260/ 17/ 24   N/A
S MID LAKE BUOY  1650   71 69  230/ 12/ 14 1007.8R
KENOSHA   LAKESH 1700   76     230/ 15/ 20 1007.5F
$$

TC  - TEMPERATURE IN CELSIUS
VSB - VISIBILITY IN STATUTE MILES
WCI - WIND CHILL INDEX
HX  - HEAT INDEX




USA.gov is the U.S. government's official web portal to all federal, state and local government web resources and services.